TimeCDT,TemperatureF,Dew PointF,Humidity,Sea Level PressureIn,VisibilityMPH,Wind Direction,Wind SpeedMPH,Gust SpeedMPH,PrecipitationIn,Events,Conditions,WindDirDegrees,DateUTC
12:15 AM,54.0,52.2,94,30.21,10.0,Calm,Calm,-,N/A,,Mostly Cloudy,0,2013-08-17 05:15:00
12:35 AM,55.4,52.2,89,30.21,10.0,Calm,Calm,-,N/A,,Scattered Clouds,0,2013-08-17 05:35:00
12:55 AM,55.8,52.7,89,30.21,10.0,Calm,Calm,-,N/A,,Mostly Cloudy,0,2013-08-17 05:55:00
1:15 AM,54.9,51.8,89,30.21,10.0,Calm,Calm,-,N/A,,Scattered Clouds,0,2013-08-17 06:15:00
1:35 AM,54.3,51.6,91,30.22,10.0,Calm,Calm,-,N/A,,Scattered Clouds,0,2013-08-17 06:35:00
1:55 AM,54.1,52.0,92,30.21,10.0,Calm,Calm,-,N/A,,Clear,0,2013-08-17 06:55:00
2:15 AM,52.9,50.7,92,30.21,10.0,Calm,Calm,-,N/A,,Scattered Clouds,0,2013-08-17 07:15:00
2:35 AM,52.2,50.2,93,30.22,10.0,Calm,Calm,-,N/A,,Clear,0,2013-08-17 07:35:00
2:55 AM,52.3,50.9,95,30.22,10.0,Calm,Calm,-,N/A,,Scattered Clouds,0,2013-08-17 07:55:00
3:15 AM,51.8,50.2,94,30.22,10.0,Calm,Calm,-,N/A,,Scattered Clouds,0,2013-08-17 08:15:00
3:35 AM,51.8,49.8,93,30.22,10.0,Calm,Calm,-,N/A,,Clear,0,2013-08-17 08:35:00
3:55 AM,51.8,50.4,95,30.23,10.0,Calm,Calm,-,N/A,,Clear,0,2013-08-17 08:55:00
4:15 AM,51.1,49.6,95,30.23,10.0,Calm,Calm,-,N/A,,Clear,0,2013-08-17 09:15:00
4:35 AM,50.2,48.7,95,30.23,10.0,Calm,Calm,-,N/A,,Clear,0,2013-08-17 09:35:00
4:55 AM,50.9,49.3,94,30.23,10.0,Calm,Calm,-,N/A,,Clear,0,2013-08-17 09:55:00
5:15 AM,49.8,48.4,95,30.24,10.0,Calm,Calm,-,N/A,,Clear,0,2013-08-17 10:15:00
5:35 AM,50.0,48.4,94,30.25,10.0,Calm,Calm,-,N/A,,Clear,0,2013-08-17 10:35:00
5:55 AM,48.7,47.7,96,30.25,10.0,Calm,Calm,-,N/A,,Clear,0,2013-08-17 10:55:00
6:15 AM,48.6,47.1,95,30.25,10.0,Calm,Calm,-,N/A,,Clear,0,2013-08-17 11:15:00
6:35 AM,49.5,47.5,93,30.25,10.0,Calm,Calm,-,N/A,,Clear,0,2013-08-17 11:35:00
6:55 AM,50.4,48.6,94,30.25,10.0,Calm,Calm,-,N/A,,Clear,0,2013-08-17 11:55:00
7:15 AM,52.3,50.0,92,30.26,10.0,Calm,Calm,-,N/A,,Clear,0,2013-08-17 12:15:00
7:35 AM,54.9,51.8,89,30.26,10.0,Calm,Calm,-,N/A,,Clear,0,2013-08-17 12:35:00
7:55 AM,58.3,53.1,83,30.26,10.0,Calm,Calm,-,N/A,,Clear,0,2013-08-17 12:55:00
8:15 AM,61.7,54.0,76,30.26,10.0,Calm,Calm,-,N/A,,Clear,0,2013-08-17 13:15:00
8:35 AM,64.0,54.5,71,30.26,10.0,Calm,Calm,-,N/A,,Clear,0,2013-08-17 13:35:00
8:55 AM,66.2,53.8,64,30.27,10.0,Calm,Calm,-,N/A,,Clear,0,2013-08-17 13:55:00
9:15 AM,68.0,54.3,62,30.26,10.0,Calm,Calm,-,N/A,,Clear,0,2013-08-17 14:15:00
9:35 AM,69.6,54.7,59,30.26,10.0,Calm,Calm,-,N/A,,Clear,0,2013-08-17 14:35:00
9:55 AM,71.8,54.3,54,30.26,10.0,Calm,Calm,-,N/A,,Clear,0,2013-08-17 14:55:00
10:15 AM,72.7,53.4,51,30.26,10.0,Calm,Calm,-,N/A,,Clear,0,2013-08-17 15:15:00
10:55 AM,74.7,52.2,45,30.26,10.0,Calm,Calm,-,N/A,,Clear,0,2013-08-17 15:55:00
11:33 AM,73.4,53.6,50,30.25,10.0,NW,4.6,-,N/A,,Clear,310,2013-08-17 16:33:00
11:35 AM,73.6,52.9,48,30.25,10.0,NW,4.6,-,N/A,,Clear,320,2013-08-17 16:35:00
11:55 AM,75.9,52.2,43,30.24,10.0,WNW,5.8,-,N/A,,Scattered Clouds,300,2013-08-17 16:55:00
12:15 PM,75.7,52.2,44,30.24,10.0,Calm,Calm,-,N/A,,Mostly Cloudy,0,2013-08-17 17:15:00
12:35 PM,77.2,51.3,40,30.23,10.0,West,3.5,-,N/A,,Mostly Cloudy,280,2013-08-17 17:35:00
12:55 PM,77.5,51.3,40,30.23,10.0,West,5.8,-,N/A,,Mostly Cloudy,280,2013-08-17 17:55:00
1:15 PM,77.0,51.4,41,30.22,10.0,WNW,8.1,-,N/A,,Mostly Cloudy,300,2013-08-17 18:15:00
1:35 PM,76.1,51.1,41,30.22,10.0,WNW,6.9,-,N/A,,Mostly Cloudy,290,2013-08-17 18:35:00
1:55 PM,76.8,50.9,40,30.21,10.0,West,8.1,-,N/A,,Overcast,260,2013-08-17 18:55:00
2:15 PM,78.1,51.1,39,30.21,10.0,South,5.8,-,N/A,,Scattered Clouds,180,2013-08-17 19:15:00
2:35 PM,78.3,51.3,39,30.21,10.0,NW,6.9,-,N/A,,Mostly Cloudy,320,2013-08-17 19:35:00
2:55 PM,78.8,51.6,39,30.20,10.0,West,6.9,-,N/A,,Mostly Cloudy,270,2013-08-17 19:55:00
3:15 PM,78.4,50.9,38,30.19,10.0,NW,4.6,-,N/A,,Mostly Cloudy,310,2013-08-17 20:15:00
3:35 PM,79.5,50.9,37,30.19,10.0,West,4.6,-,N/A,,Overcast,260,2013-08-17 20:35:00
3:55 PM,79.9,51.1,37,30.19,10.0,SW,8.1,-,N/A,,Overcast,220,2013-08-17 20:55:00
4:15 PM,79.0,50.4,37,30.19,10.0,SW,6.9,-,N/A,,Mostly Cloudy,230,2013-08-17 21:15:00
4:35 PM,79.2,50.7,37,30.18,10.0,SSW,10.4,-,N/A,,Scattered Clouds,210,2013-08-17 21:35:00
4:55 PM,78.4,50.7,38,30.18,10.0,Calm,Calm,-,N/A,,Clear,0,2013-08-17 21:55:00
5:15 PM,78.4,50.9,38,30.18,10.0,WNW,3.5,-,N/A,,Clear,300,2013-08-17 22:15:00
5:35 PM,78.3,51.4,39,30.18,10.0,WNW,3.5,-,N/A,,Clear,300,2013-08-17 22:35:00
5:55 PM,78.3,52.0,40,30.18,10.0,Calm,Calm,-,N/A,,Scattered Clouds,0,2013-08-17 22:55:00
6:15 PM,77.7,51.8,40,30.17,10.0,Calm,Calm,-,N/A,,Scattered Clouds,0,2013-08-17 23:15:00
6:35 PM,77.5,51.4,40,30.17,10.0,West,4.6,-,N/A,,Clear,260,2013-08-17 23:35:00
6:55 PM,77.0,52.2,42,30.16,10.0,West,3.5,-,N/A,,Scattered Clouds,270,2013-08-17 23:55:00
7:15 PM,75.7,53.6,46,30.16,10.0,Calm,Calm,-,N/A,,Clear,0,2013-08-18 00:15:00
7:35 PM,75.2,53.6,47,30.17,10.0,Calm,Calm,-,N/A,,Clear,0,2013-08-18 00:35:00
7:55 PM,70.3,55.4,59,30.17,10.0,Calm,Calm,-,N/A,,Scattered Clouds,0,2013-08-18 00:55:00
8:15 PM,71.4,53.8,54,30.17,10.0,SSE,5.8,-,N/A,,Mostly Cloudy,160,2013-08-18 01:15:00
8:35 PM,70.7,54.0,55,30.18,10.0,SSE,3.5,-,N/A,,Overcast,160,2013-08-18 01:35:00
8:55 PM,68.7,54.0,59,30.18,10.0,South,4.6,-,N/A,,Scattered Clouds,170,2013-08-18 01:55:00
9:15 PM,68.4,53.8,60,30.18,10.0,South,3.5,-,N/A,,Scattered Clouds,190,2013-08-18 02:15:00
9:35 PM,67.3,53.6,61,30.18,10.0,South,4.6,-,N/A,,Scattered Clouds,180,2013-08-18 02:35:00
9:55 PM,65.5,53.4,65,30.18,10.0,South,3.5,-,N/A,,Clear,170,2013-08-18 02:55:00
10:15 PM,64.4,53.1,67,30.18,10.0,Calm,Calm,-,N/A,,Clear,0,2013-08-18 03:15:00
10:35 PM,62.6,53.1,71,30.18,10.0,Calm,Calm,-,N/A,,Clear,0,2013-08-18 03:35:00
10:55 PM,60.8,53.8,78,30.19,10.0,Calm,Calm,-,N/A,,Clear,0,2013-08-18 03:55:00
11:15 PM,58.5,52.0,79,30.19,10.0,Calm,Calm,-,N/A,,Clear,0,2013-08-18 04:15:00
11:35 PM,59.5,53.2,80,30.19,10.0,Calm,Calm,-,N/A,,Clear,0,2013-08-18 04:35:00
11:55 PM,57.7,52.0,81,30.19,10.0,Calm,Calm,-,N/A,,Clear,0,2013-08-18 04:55:00